This is the latest recevied weather packets stored in our database for station/object WBGG. If no packets are shown the sender has not sent any weather packets the latest 1 day(s).
| Time | Temp. | Humidity | Pressure | Rain* | Wind** | Luminosity | Snow |
|---|---|---|---|---|---|---|---|
| 1778091009 | 25° C | 94% | 1009 hPa | - | - | - | - |
| 1778089191 | 25° C | 10% | - | - | - | - | - |
| 1778085591 | 25° C | 10% | - | - | - | - | - |
| 1778081392 | 25° C | 10% | - | - | - | - | - |
| 1778076609 | 26.67° C | 94% | 1009 hPa | - | - | - | - |
| 1778074797 | 26.67° C | 94% | 1009 hPa | - | - | - | - |
| 1778073591 | 26.67° C | 94% | 1009 hPa | - | - | - | - |
| 1778069416 | 27.78° C | 83% | 1008 hPa | - | - | - | - |
| 1778063992 | 28.89° C | 79% | 1006 hPa | - | - | - | - |
| 1778056790 | 30.56° C | 70% | 1006 hPa | - | - | - | - |
| 1778053190 | 32.78° C | 66% | 1006 hPa | - | - | - | - |
| 1778051990 | 32.78° C | 66% | 1005 hPa | - | - | - | - |
| 1778051416 | 32.78° C | 66% | 1006 hPa | - | - | - | - |
| 1778047808 | 30.56° C | 74% | 1007 hPa | - | - | - | - |
| 1778045990 | 31.67° C | 70% | 1007 hPa | - | - | - | - |
| 1778042390 | 32.78° C | 66% | 1008 hPa | - | - | - | - |
| 1778040609 | 31.67° C | 66% | 1008 hPa | - | - | - | - |
| 1778038790 | 31.67° C | 66% | 1009 hPa | - | - | - | - |
| 1778037014 | 30.56° C | 70% | 1009 hPa | - | - | - | - |
| 1778035191 | 30.56° C | 74% | 1009 hPa | - | - | - | - |
| 1778027990 | 26.67° C | 88% | 1009 hPa | - | - | - | - |
| 1778026209 | 25.56° C | 88% | 1009 hPa | - | - | - | - |
| 1778015408 | 25° C | 94% | 1008 hPa | - | - | - | - |
| 1778009989 | 25° C | 94% | 1007 hPa | - | - | - | - |
| 1778008207 | 25° C | 94% | 1008 hPa | - | - | - | - |
* Rain since midnight (hover to see other rain measurements)
** Current wind speed in m/s (hover to see current wind gust speed)